| time (UTC) | temp F | wind direction | speed knots | gust knots | rain 1hr in | rain 24hr in | rain mn in | humidity % | barometer mb |
| 20260507223321 | 76 | 257 | 2.6 | 7.8 | 0.00 | 0.00 | 0.00 | 24 | 1016.4 |
| 20260507223317 | 76 | 304 | 2.6 | 7.8 | 0.00 | 0.00 | 0.00 | 25 | 1016.4 |
| 20260507222316 | 76 | 151 | 2.6 | 7.8 | 0.00 | 0.00 | 0.00 | 24 | 1016.5 |
| 20260507221817 | 76 | 250 | 2.6 | 7.0 | 0.00 | 0.00 | 0.00 | 25 | 1016.5 |
| 20260507221318 | 76 | 234 | 2.6 | 6.1 | 0.00 | 0.00 | 0.00 | 25 | 1016.5 |
| 20260507220819 | 76 | 277 | 2.6 | 7.0 | 0.00 | 0.00 | 0.00 | 24 | 1016.8 |
| 20260507220815 | 76 | 224 | 1.7 | 7.0 | 0.00 | 0.00 | 0.00 | 24 | 1016.6 |
| 20260507215819 | 75 | 236 | 2.6 | 7.8 | 0.00 | 0.00 | 0.00 | 26 | 1016.9 |
| 20260507215814 | 76 | 250 | 1.7 | 4.3 | 0.00 | 0.00 | 0.00 | 25 | 1016.8 |
| 20260507215313 | 76 | 327 | 2.6 | 7.8 | 0.00 | 0.00 | 0.00 | 25 | 1016.9 |
| 20260507214317 | 75 | 172 | 2.6 | 8.7 | 0.00 | 0.00 | 0.00 | 25 | 1017.1 |
| 20260507214313 | 75 | 290 | 1.7 | 7.0 | 0.00 | 0.00 | 0.00 | 27 | 1016.9 |
| 20260507213925 | 75 | 223 | 2.6 | 8.7 | 0.00 | 0.00 | 0.00 | 26 | 1017.2 |
| 20260507212812 | 75 | 202 | 1.7 | 7.0 | 0.00 | 0.00 | 0.00 | 27 | 1017.2 |
| 20260507212314 | 74 | 103 | 2.6 | 6.1 | 0.00 | 0.00 | 0.00 | 27 | 1017.3 |
| 20260507211811 | 74 | 263 | 2.6 | 6.1 | 0.00 | 0.00 | 0.00 | 28 | 1017.5 |
| 20260507211311 | 74 | 64 | 2.6 | 9.6 | 0.00 | 0.00 | 0.00 | 27 | 1017.7 |
| 20260507210811 | 74 | 190 | 2.6 | 9.6 | 0.00 | 0.00 | 0.00 | 26 | 1017.7 |
| 20260507210311 | 74 | 223 | 2.6 | 6.1 | 0.00 | 0.00 | 0.00 | 27 | 1017.8 |
| 20260507205810 | 74 | 309 | 2.6 | 7.0 | 0.00 | 0.00 | 0.00 | 28 | 1017.9 |
| 20260507205316 | 74 | 255 | 2.6 | 7.8 | 0.00 | 0.00 | 0.00 | 29 | 1018.0 |
| 20260507205311 | 74 | 208 | 1.7 | 7.0 | 0.00 | 0.00 | 0.00 | 28 | 1017.9 |
| 20260507204311 | 74 | 30 | 2.6 | 7.8 | 0.00 | 0.00 | 0.00 | 29 | 1018.2 |
| 20260507203811 | 73 | 185 | 1.7 | 7.0 | 0.00 | 0.00 | 0.00 | 29 | 1018.3 |
| 20260507203312 | 73 | 254 | 2.6 | 5.2 | 0.00 | 0.00 | 0.00 | 29 | 1018.4 |
| 20260507202816 | 73 | 281 | 2.6 | 7.8 | 0.00 | 0.00 | 0.00 | 28 | 1018.7 |
| 20260507202811 | 73 | 255 | 2.6 | 7.8 | 0.00 | 0.00 | 0.00 | 29 | 1018.6 |
| 20260507201810 | 72 | 103 | 1.7 | 7.0 | 0.00 | 0.00 | 0.00 | 31 | 1018.7 |
| 20260507201308 | 72 | 230 | 2.6 | 7.8 | 0.00 | 0.00 | 0.00 | 32 | 1018.8 |
| 20260507200808 | 72 | 288 | 2.6 | 7.8 | 0.00 | 0.00 | 0.00 | 31 | 1018.9 |
| 20260507200314 | 71 | 314 | 2.6 | 7.0 | 0.00 | 0.00 | 0.00 | 33 | 1019.2 |
| 20260507200310 | 71 | 273 | 1.7 | 9.6 | 0.00 | 0.00 | 0.00 | 31 | 1019.1 |
| 20260507195807 | 71 | 226 | 1.7 | 9.6 | 0.00 | 0.00 | 0.00 | 32 | 1019.2 |
| 20260507194805 | 71 | 223 | 2.6 | 7.0 | 0.00 | 0.00 | 0.00 | 31 | 1019.3 |
| 20260507194305 | 70 | 188 | 1.7 | 6.1 | 0.00 | 0.00 | 0.00 | 30 | 1019.6 |
| 20260507193805 | 70 | 213 | 1.7 | 6.1 | 0.00 | 0.00 | 0.00 | 33 | 1019.6 |
| 20260507193303 | 70 | 123 | 2.6 | 7.0 | 0.00 | 0.00 | 0.00 | 34 | 1019.7 |
| 20260507192800 | 70 | 297 | 1.7 | 7.0 | 0.00 | 0.00 | 0.00 | 34 | 1019.9 |
| 20260507192300 | 70 | 246 | 1.7 | 7.0 | 0.00 | 0.00 | 0.00 | 35 | 1020.0 |
| 20260507191800 | 69 | 252 | 1.7 | 7.0 | 0.00 | 0.00 | 0.00 | 35 | 1020.1 |
| 20260507191302 | 69 | 215 | 2.6 | 7.0 | 0.00 | 0.00 | 0.00 | 36 | 1020.1 |
| 20260507190801 | 68 | 308 | 2.6 | 7.0 | 0.00 | 0.00 | 0.00 | 38 | 1020.2 |
| 20260507190301 | 68 | 256 | 2.6 | 7.0 | 0.00 | 0.00 | 0.00 | 37 | 1020.5 |
| 20260507185806 | 68 | 283 | 2.6 | 7.0 | 0.00 | 0.00 | 0.00 | 39 | 1020.6 |
| 20260507185801 | 68 | 302 | 2.6 | 6.1 | 0.00 | 0.00 | 0.00 | 39 | 1020.5 |
| 20260507184800 | 67 | 310 | 1.7 | 7.0 | 0.00 | 0.00 | 0.00 | 40 | 1020.7 |
| 20260507184301 | 67 | 184 | 2.6 | 7.0 | 0.00 | 0.00 | 0.00 | 41 | 1020.7 |
| 20260507183800 | 67 | 275 | 1.7 | 7.0 | 0.00 | 0.00 | 0.00 | 42 | 1020.8 |
| 20260507183259 | 66 | 216 | 1.7 | 5.2 | 0.00 | 0.00 | 0.00 | 42 | 1021.1 |
| 20260507182759 | 66 | 286 | 2.6 | 6.1 | 0.00 | 0.00 | 0.00 | 42 | 1021.1 |
| 20260507182306 | 65 | 296 | 1.7 | 6.1 | 0.00 | 0.00 | 0.00 | 43 | 1021.5 |
| 20260507182258 | 65 | 279 | 1.7 | 6.1 | 0.00 | 0.00 | 0.00 | 43 | 1021.2 |
| 20260507181258 | 65 | 184 | 1.7 | 3.5 | 0.00 | 0.00 | 0.00 | 43 | 1021.5 |
| 20260507180758 | 65 | 222 | 1.7 | 5.2 | 0.00 | 0.00 | 0.00 | 45 | 1021.6 |
| 20260507180300 | 64 | 290 | 2.6 | 7.8 | 0.00 | 0.00 | 0.00 | 45 | 1021.7 |
| 20260507175758 | 64 | 290 | 2.6 | 7.8 | 0.00 | 0.00 | 0.00 | 45 | 1021.9 |
| 20260507175257 | 64 | 188 | 2.6 | 9.6 | 0.00 | 0.00 | 0.00 | 46 | 1021.9 |
| 20260507174803 | 63 | 268 | 2.6 | 6.1 | 0.00 | 0.00 | 0.00 | 46 | 1022.0 |
| 20260507174758 | 64 | 239 | 2.6 | 9.6 | 0.00 | 0.00 | 0.00 | 46 | 1022.1 |
| 20260507173755 | 63 | 301 | 2.6 | 7.0 | 0.00 | 0.00 | 0.00 | 48 | 1022.1 |
| 20260507173254 | 63 | 317 | 2.6 | 7.8 | 0.00 | 0.00 | 0.00 | 47 | 1022.1 |
| 20260507172754 | 62 | 280 | 2.6 | 7.8 | 0.00 | 0.00 | 0.00 | 49 | 1022.2 |
| 20260507172256 | 62 | 111 | 2.6 | 5.2 | 0.00 | 0.00 | 0.00 | 49 | 1022.2 |
| 20260507171755 | 61 | 240 | 2.6 | 6.1 | 0.00 | 0.00 | 0.00 | 50 | 1022.4 |
| 20260507171255 | 61 | 300 | 2.6 | 6.1 | 0.00 | 0.00 | 0.00 | 49 | 1022.5 |
| 20260507170755 | 61 | 311 | 1.7 | 5.2 | 0.00 | 0.00 | 0.00 | 50 | 1022.6 |
| 20260507170255 | 60 | 238 | 1.7 | 6.1 | 0.00 | 0.00 | 0.00 | 51 | 1022.6 |
| 20260507165758 | 59 | 227 | 2.6 | 7.0 | 0.00 | 0.00 | 0.00 | 53 | 1022.9 |
| 20260507165754 | 60 | 247 | 2.6 | 7.0 | 0.00 | 0.00 | 0.00 | 52 | 1022.8 |
| 20260507164755 | 59 | 189 | 2.6 | 6.1 | 0.00 | 0.00 | 0.00 | 54 | 1022.9 |
| 20260507164300 | 58 | 284 | 1.7 | 5.2 | 0.00 | 0.00 | 0.00 | 55 | 1023.0 |
| 20260507164254 | 58 | 298 | 2.6 | 6.1 | 0.00 | 0.00 | 0.00 | 55 | 1023.0 |
| 20260507163254 | 58 | 213 | 1.7 | 7.8 | 0.00 | 0.00 | 0.00 | 55 | 1023.3 |
| 20260507162754 | 58 | 259 | 1.7 | 7.8 | 0.00 | 0.00 | 0.00 | 56 | 1023.3 |
| 20260507162255 | 58 | 251 | 1.7 | 5.2 | 0.00 | 0.00 | 0.00 | 57 | 1023.4 |
| 20260507161755 | 57 | 188 | 1.7 | 5.2 | 0.00 | 0.00 | 0.00 | 57 | 1023.4 |
| 20260507161301 | 56 | 266 | 1.7 | 5.2 | 0.00 | 0.00 | 0.00 | 58 | 1023.4 |
| 20260507161257 | 57 | 130 | 1.7 | 3.5 | 0.00 | 0.00 | 0.00 | 58 | 1023.4 |
| 20260507160255 | 56 | 171 | 2.6 | 5.2 | 0.00 | 0.00 | 0.00 | 58 | 1023.5 |
| 20260507155753 | 56 | 242 | 1.7 | 5.2 | 0.00 | 0.00 | 0.00 | 58 | 1023.6 |
| 20260507155253 | 56 | 172 | 1.7 | 4.3 | 0.00 | 0.00 | 0.00 | 60 | 1023.6 |
| 20260507154750 | 55 | 276 | 1.7 | 3.5 | 0.00 | 0.00 | 0.00 | 61 | 1023.7 |
| 20260507154250 | 54 | 239 | 1.7 | 3.5 | 0.00 | 0.00 | 0.00 | 62 | 1023.8 |
| 20260507153748 | 54 | 305 | 1.7 | 4.3 | 0.00 | 0.00 | 0.00 | 64 | 1023.8 |
| 20260507153246 | 53 | 246 | 1.7 | 4.3 | 0.00 | 0.00 | 0.00 | 67 | 1023.8 |
| 20260507152746 | 53 | 270 | 0.9 | 5.2 | 0.00 | 0.00 | 0.00 | 69 | 1023.8 |
| 20260507152246 | 52 | 196 | 0.9 | 5.2 | 0.00 | 0.00 | 0.00 | 71 | 1023.9 |
| 20260507151751 | 50 | 256 | 0.9 | 5.2 | 0.00 | 0.00 | 0.00 | 78 | 1023.9 |
| 20260507151747 | 51 | 178 | 0.9 | 5.2 | 0.00 | 0.00 | 0.00 | 75 | 1023.9 |
| 20260507151245 | 49 | 246 | 0.9 | 3.5 | 0.00 | 0.00 | 0.00 | 81 | 1024.0 |
| 20260507150855 | 49 | 291 | 1.7 | 5.2 | 0.00 | 0.00 | 0.00 | 84 | 1024.0 |
| 20260507150353 | 48 | 299 | 1.7 | 5.2 | 0.00 | 0.00 | 0.00 | 85 | 1024.0 |
| 20260507145240 | 47 | 266 | 0.9 | 3.5 | 0.00 | 0.00 | 0.00 | 86 | 1024.0 |
| 20260507144743 | 47 | 290 | 0.9 | 2.6 | 0.00 | 0.00 | 0.00 | 88 | 1024.0 |
| 20260507144738 | 46 | 291 | 1.7 | 3.5 | 0.00 | 0.00 | 0.00 | 88 | 1024.0 |
| 20260507143736 | 46 | 268 | 1.7 | 3.5 | 0.00 | 0.00 | 0.00 | 89 | 1024.1 |
| 20260507143240 | 45 | 295 | 1.7 | 3.5 | 0.00 | 0.00 | 0.00 | 90 | 1024.3 |
| 20260507143236 | 46 | 284 | 1.7 | 3.5 | 0.00 | 0.00 | 0.00 | 90 | 1024.3 |
| 20260507142237 | 45 | 292 | 1.7 | 3.5 | 0.00 | 0.00 | 0.00 | 90 | 1024.3 |
| 20260507141736 | 44 | 77 | 1.7 | 3.5 | 0.00 | 0.00 | 0.00 | 90 | 1024.3 |
| 20260507141237 | 44 | 284 | 1.7 | 5.2 | 0.00 | 0.00 | 0.00 | 90 | 1024.5 |
| 20260507140735 | 44 | 283 | 1.7 | 5.2 | 0.00 | 0.00 | 0.00 | 91 | 1024.4 |
| 20260507140234 | 43 | 284 | 1.7 | 3.5 | 0.00 | 0.00 | 0.00 | 91 | 1024.4 |
| 20260507135738 | 43 | 259 | 1.7 | 3.5 | 0.00 | 0.00 | 0.00 | 91 | 1024.5 |
| 20260507135734 | 43 | 278 | 0.9 | 3.5 | 0.00 | 0.00 | 0.00 | 91 | 1024.5 |
| 20260507135234 | 43 | 270 | 0.9 | 3.5 | 0.00 | 0.00 | 0.00 | 91 | 1024.5 |
| 20260507134234 | 43 | 279 | 1.7 | 3.5 | 0.00 | 0.00 | 0.00 | 91 | 1024.5 |
| 20260507133734 | 42 | 295 | 0.9 | 2.6 | 0.00 | 0.00 | 0.00 | 91 | 1024.5 |
| 20260507133234 | 42 | 355 | 1.7 | 3.5 | 0.00 | 0.00 | 0.00 | 91 | 1024.5 |
| 20260507132734 | 42 | 284 | 0.9 | 3.5 | 0.00 | 0.00 | 0.00 | 91 | 1024.5 |
| 20260507132239 | 42 | 273 | 1.7 | 3.5 | 0.00 | 0.00 | 0.00 | 90 | 1024.5 |
| 20260507132234 | 42 | 284 | 1.7 | 3.5 | 0.00 | 0.00 | 0.00 | 90 | 1024.5 |
| 20260507131845 | 42 | 323 | 0.9 | 2.6 | 0.00 | 0.00 | 0.00 | 90 | 1024.5 |
| 20260507130734 | 41 | 315 | 0.9 | 2.6 | 0.00 | 0.00 | 0.00 | 91 | 1024.5 |
| 20260507130233 | 41 | 292 | 0.9 | 2.6 | 0.00 | 0.00 | 0.00 | 90 | 1024.4 |
| 20260507125732 | 41 | 267 | 0.9 | 2.6 | 0.00 | 0.00 | 0.00 | 90 | 1024.4 |
| 20260507125232 | 40 | 295 | 0.9 | 2.6 | 0.00 | 0.00 | 0.00 | 90 | 1024.3 |
| 20260507124733 | 40 | 288 | 0.9 | 5.2 | 0.00 | 0.00 | 0.00 | 90 | 1024.3 |
| 20260507124233 | 40 | 271 | 1.7 | 5.2 | 0.00 | 0.00 | 0.00 | 90 | 1024.3 |
| 20260507123732 | 40 | 293 | 0.9 | 4.3 | 0.00 | 0.00 | 0.00 | 90 | 1024.3 |
| 20260507123232 | 39 | 310 | 0.0 | 1.7 | 0.00 | 0.00 | 0.00 | 89 | 1024.1 |
| 20260507122732 | 39 | 310 | 0.0 | 1.7 | 0.00 | 0.00 | 0.00 | 89 | 1024.0 |
| 20260507122228 | 39 | 310 | 0.0 | 1.7 | 0.00 | 0.00 | 0.00 | 89 | 1024.0 |
| 20260507121728 | 39 | 310 | 0.0 | 1.7 | 0.00 | 0.00 | 0.00 | 89 | 1024.0 |
| 20260507121230 | 39 | 310 | 0.0 | 0.9 | 0.00 | 0.00 | 0.00 | 89 | 1024.0 |
| 20260507120728 | 39 | 310 | 0.0 | 0.9 | 0.00 | 0.00 | 0.00 | 89 | 1023.9 |
| 20260507120228 | 39 | 310 | 0.0 | 0.9 | 0.00 | 0.00 | 0.00 | 89 | 1023.9 |
| 20260507115729 | 39 | 310 | 0.0 | 0.0 | 0.00 | 0.00 | 0.00 | 88 | 1023.9 |
| 20260507115233 | 39 | 310 | 0.0 | 0.0 | 0.00 | 0.00 | 0.00 | 88 | 1023.9 |
| 20260507115228 | 39 | 310 | 0.0 | 0.0 | 0.00 | 0.00 | 0.00 | 88 | 1023.8 |
| 20260507114230 | 39 | 310 | 0.0 | 0.9 | 0.00 | 0.00 | 0.00 | 88 | 1023.8 |
| 20260507113734 | 39 | 310 | 0.0 | 0.9 | 0.00 | 0.00 | 0.00 | 88 | 1023.8 |
| 20260507113729 | 39 | 310 | 0.0 | 0.9 | 0.00 | 0.00 | 0.00 | 88 | 1023.8 |
| 20260507113229 | 39 | 310 | 0.0 | 0.9 | 0.00 | 0.00 | 0.00 | 88 | 1023.8 |
| 20260507112226 | 39 | 309 | 0.0 | 1.7 | 0.00 | 0.00 | 0.00 | 88 | 1023.8 |
| 20260507111730 | 39 | 325 | 0.0 | 0.9 | 0.00 | 0.00 | 0.00 | 88 | 1024.0 |
| 20260507111726 | 39 | 309 | 0.0 | 1.7 | 0.00 | 0.00 | 0.00 | 88 | 1023.9 |
| 20260507110726 | 39 | 355 | 0.0 | 0.9 | 0.00 | 0.00 | 0.00 | 88 | 1024.0 |
| 20260507110227 | 39 | 355 | 0.0 | 0.9 | 0.00 | 0.00 | 0.00 | 87 | 1023.9 |
| 20260507105731 | 40 | 355 | 0.0 | 0.0 | 0.00 | 0.00 | 0.00 | 87 | 1023.9 |
| 20260507105727 | 39 | 355 | 0.0 | 0.9 | 0.00 | 0.00 | 0.00 | 87 | 1023.9 |
| 20260507104726 | 40 | 355 | 0.0 | 0.0 | 0.00 | 0.00 | 0.00 | 87 | 1023.9 |
| 20260507104226 | 40 | 355 | 0.0 | 0.0 | 0.00 | 0.00 | 0.00 | 86 | 1023.8 |
| 20260507103726 | 40 | 355 | 0.0 | 0.0 | 0.00 | 0.00 | 0.00 | 87 | 1023.9 |
| 20260507103224 | 40 | 355 | 0.0 | 0.0 | 0.00 | 0.00 | 0.00 | 87 | 1023.9 |
| 20260507102724 | 40 | 355 | 0.0 | 0.0 | 0.00 | 0.00 | 0.00 | 87 | 1024.0 |
| 20260507102224 | 40 | 355 | 0.0 | 0.0 | 0.00 | 0.00 | 0.00 | 86 | 1023.9 |
| 20260507101725 | 40 | 355 | 0.0 | 0.0 | 0.00 | 0.00 | 0.00 | 86 | 1023.8 |
| 20260507101223 | 40 | 355 | 0.0 | 0.0 | 0.00 | 0.00 | 0.00 | 86 | 1023.8 |
| 20260507100723 | 40 | 355 | 0.0 | 0.0 | 0.00 | 0.00 | 0.00 | 85 | 1023.8 |
| 20260507100225 | 40 | 355 | 0.0 | 0.0 | 0.00 | 0.00 | 0.00 | 85 | 1023.9 |
| 20260507095725 | 40 | 355 | 0.0 | 0.0 | 0.00 | 0.00 | 0.00 | 85 | 1023.8 |
| 20260507095224 | 41 | 355 | 0.0 | 0.0 | 0.00 | 0.00 | 0.00 | 85 | 1024.0 |
| 20260507094723 | 41 | 355 | 0.0 | 0.0 | 0.00 | 0.00 | 0.00 | 85 | 1024.0 |
| 20260507094227 | 41 | 355 | 0.0 | 1.7 | 0.00 | 0.00 | 0.00 | 84 | 1023.9 |
| 20260507094223 | 41 | 355 | 0.0 | 0.0 | 0.00 | 0.00 | 0.00 | 84 | 1024.0 |
| 20260507093721 | 41 | 355 | 0.0 | 0.0 | 0.00 | 0.00 | 0.00 | 84 | 1023.9 |
| 20260507093332 | 42 | 355 | 0.9 | 1.7 | 0.00 | 0.00 | 0.00 | 82 | 1023.9 |
| 20260507092723 | 42 | 355 | 0.0 | 1.7 | 0.00 | 0.00 | 0.00 | 83 | 1024.0 |
| 20260507092221 | 42 | 355 | 0.9 | 1.7 | 0.00 | 0.00 | 0.00 | 83 | 1024.0 |
| 20260507091221 | 42 | 355 | 0.9 | 1.7 | 0.00 | 0.00 | 0.00 | 82 | 1023.9 |
| 20260507090723 | 43 | 26 | 0.0 | 1.7 | 0.00 | 0.00 | 0.00 | 81 | 1023.8 |
| 20260507090222 | 43 | 121 | 0.0 | 1.7 | 0.00 | 0.00 | 0.00 | 81 | 1023.8 |
| 20260507085725 | 43 | 121 | 0.0 | 0.0 | 0.00 | 0.00 | 0.00 | 80 | 1023.8 |
| 20260507085719 | 43 | 121 | 0.0 | 1.7 | 0.00 | 0.00 | 0.00 | 80 | 1023.8 |
| 20260507084720 | 44 | 121 | 0.0 | 0.0 | 0.00 | 0.00 | 0.00 | 80 | 1023.7 |
| 20260507084221 | 44 | 121 | 0.0 | 0.0 | 0.00 | 0.00 | 0.00 | 80 | 1023.6 |
| 20260507083717 | 44 | 121 | 0.0 | 0.0 | 0.00 | 0.00 | 0.00 | 79 | 1023.6 |
| 20260507083219 | 44 | 121 | 0.0 | 0.0 | 0.00 | 0.00 | 0.00 | 79 | 1023.6 |
| 20260507082718 | 44 | 121 | 0.0 | 0.0 | 0.00 | 0.00 | 0.00 | 79 | 1023.5 |
| 20260507082219 | 44 | 121 | 0.0 | 0.0 | 0.00 | 0.00 | 0.00 | 79 | 1023.5 |
| 20260507081719 | 44 | 121 | 0.0 | 0.0 | 0.00 | 0.00 | 0.00 | 79 | 1023.4 |
| 20260507081222 | 44 | 121 | 0.0 | 1.7 | 0.00 | 0.00 | 0.00 | 79 | 1023.4 |
| 20260507081218 | 44 | 121 | 0.0 | 1.7 | 0.00 | 0.00 | 0.00 | 79 | 1023.4 |
| 20260507080829 | 44 | 121 | 0.0 | 1.7 | 0.00 | 0.00 | 0.00 | 79 | 1023.5 |
| 20260507075717 | 44 | 121 | 0.0 | 0.9 | 0.00 | 0.00 | 0.00 | 79 | 1023.4 |
| 20260507075223 | 44 | 121 | 0.9 | 3.5 | 0.00 | 0.00 | 0.00 | 79 | 1023.1 |
| 20260507075217 | 44 | 121 | 0.0 | 3.5 | 0.00 | 0.00 | 0.00 | 79 | 1023.3 |
| 20260507074215 | 44 | 74 | 0.9 | 6.1 | 0.00 | 0.00 | 0.00 | 79 | 1023.0 |
| 20260507073714 | 44 | 77 | 0.9 | 6.1 | 0.00 | 0.00 | 0.00 | 79 | 1023.3 |
| 20260507073217 | 45 | 11 | 0.0 | 1.7 | 0.00 | 0.00 | 0.00 | 80 | 1023.8 |
| 20260507073213 | 44 | 92 | 0.9 | 5.2 | 0.00 | 0.00 | 0.00 | 80 | 1023.5 |
| 20260507072219 | 45 | 327 | 0.0 | 1.7 | 0.00 | 0.00 | 0.00 | 79 | 1024.5 |
| 20260507072214 | 44 | 355 | 0.0 | 1.7 | 0.00 | 0.00 | 0.00 | 79 | 1024.6 |
| 20260507071212 | 45 | 327 | 0.0 | 1.7 | 0.00 | 0.00 | 0.00 | 78 | 1024.7 |
| 20260507070712 | 45 | 9 | 0.0 | 2.6 | 0.00 | 0.00 | 0.00 | 78 | 1024.5 |
| 20260507070211 | 45 | 9 | 0.0 | 2.6 | 0.00 | 0.00 | 0.00 | 78 | 1024.6 |
| 20260507065708 | 45 | 346 | 0.0 | 0.9 | 0.00 | 0.00 | 0.00 | 78 | 1024.7 |
| 20260507065213 | 45 | 13 | 0.0 | 1.7 | 0.00 | 0.00 | 0.00 | 78 | 1024.7 |
| 20260507065207 | 45 | 13 | 0.0 | 0.9 | 0.00 | 0.00 | 0.00 | 78 | 1024.7 |
| 20260507064209 | 45 | 13 | 0.0 | 1.7 | 0.00 | 0.00 | 0.00 | 78 | 1024.7 |
| 20260507063707 | 45 | 65 | 0.0 | 1.7 | 0.00 | 0.00 | 0.00 | 77 | 1024.6 |
| 20260507063207 | 45 | 24 | 0.0 | 1.7 | 0.00 | 0.00 | 0.00 | 77 | 1024.6 |
| 20260507062703 | 45 | 27 | 0.0 | 2.6 | 0.00 | 0.00 | 0.00 | 77 | 1024.8 |
| 20260507062203 | 46 | 331 | 0.0 | 2.6 | 0.00 | 0.00 | 0.00 | 78 | 1024.8 |
| 20260507061703 | 46 | 355 | 0.9 | 3.5 | 0.00 | 0.00 | 0.00 | 78 | 1024.9 |
| 20260507061203 | 46 | 5 | 0.0 | 3.5 | 0.00 | 0.00 | 0.00 | 78 | 1024.9 |
| 20260507060708 | 46 | 36 | 0.0 | 1.7 | 0.00 | 0.00 | 0.00 | 77 | 1024.8 |
| 20260507060703 | 46 | 336 | 0.0 | 1.7 | 0.00 | 0.00 | 0.00 | 77 | 1024.8 |
| 20260507055705 | 46 | 36 | 0.0 | 1.7 | 0.00 | 0.00 | 0.00 | 76 | 1024.5 |
| 20260507055203 | 46 | 13 | 0.0 | 1.7 | 0.00 | 0.00 | 0.00 | 75 | 1024.3 |
| 20260507054704 | 46 | 348 | 0.0 | 1.7 | 0.00 | 0.00 | 0.00 | 75 | 1024.1 |
| 20260507054204 | 46 | 300 | 0.9 | 2.6 | 0.00 | 0.00 | 0.00 | 74 | 1023.9 |
| 20260507053709 | 46 | 355 | 0.9 | 1.7 | 0.00 | 0.00 | 0.00 | 74 | 1023.6 |
| 20260507053704 | 46 | 72 | 0.9 | 2.6 | 0.00 | 0.00 | 0.00 | 74 | 1023.7 |
| 20260507052704 | 46 | 332 | 0.9 | 1.7 | 0.00 | 0.00 | 0.00 | 74 | 1023.9 |
| 20260507052206 | 46 | 340 | 0.9 | 3.5 | 0.00 | 0.00 | 0.00 | 73 | 1024.0 |
| 20260507052201 | 46 | 0 | 0.9 | 3.5 | 0.00 | 0.00 | 0.00 | 72 | 1023.9 |
| 20260507051200 | 46 | 17 | 1.7 | 3.5 | 0.00 | 0.00 | 0.00 | 72 | 1024.0 |
| 20260507050705 | 46 | 351 | 0.9 | 3.5 | 0.00 | 0.00 | 0.00 | 70 | 1023.9 |
| 20260507050701 | 46 | 350 | 0.9 | 3.5 | 0.00 | 0.00 | 0.00 | 71 | 1023.9 |
| 20260507045657 | 47 | 355 | 0.9 | 3.5 | 0.00 | 0.00 | 0.00 | 70 | 1023.9 |
| 20260507045158 | 47 | 25 | 0.9 | 2.6 | 0.00 | 0.00 | 0.00 | 70 | 1023.8 |
| 20260507044700 | 47 | 12 | 0.9 | 3.5 | 0.00 | 0.00 | 0.00 | 70 | 1023.6 |
| 20260507044656 | 46 | 40 | 0.9 | 3.5 | 0.00 | 0.00 | 0.00 | 70 | 1023.7 |
| 20260507043656 | 46 | 15 | 0.9 | 2.6 | 0.00 | 0.00 | 0.00 | 71 | 1023.6 |
| 20260507043156 | 47 | 106 | 0.9 | 2.6 | 0.00 | 0.00 | 0.00 | 71 | 1023.5 |
| 20260507042657 | 47 | 355 | 0.9 | 2.6 | 0.00 | 0.00 | 0.00 | 71 | 1023.1 |
| 20260507042154 | 47 | 323 | 0.9 | 2.6 | 0.00 | 0.00 | 0.00 | 71 | 1023.1 |
| 20260507041654 | 47 | 18 | 0.9 | 2.6 | 0.00 | 0.00 | 0.00 | 71 | 1023.5 |
| 20260507041152 | 47 | 40 | 0.9 | 2.6 | 0.00 | 0.00 | 0.00 | 71 | 1023.5 |
| 20260507040652 | 47 | 36 | 0.9 | 3.5 | 0.00 | 0.00 | 0.00 | 71 | 1023.3 |
| 20260507040152 | 47 | 294 | 0.9 | 3.5 | 0.00 | 0.00 | 0.00 | 70 | 1023.0 |
| 20260507035652 | 48 | 79 | 0.9 | 2.6 | 0.00 | 0.00 | 0.00 | 70 | 1022.8 |
| 20260507035152 | 48 | 24 | 1.7 | 2.6 | 0.00 | 0.00 | 0.00 | 70 | 1022.7 |
| 20260507034652 | 48 | 53 | 0.9 | 3.5 | 0.00 | 0.00 | 0.00 | 70 | 1022.6 |
| 20260507034152 | 48 | 9 | 0.9 | 3.5 | 0.00 | 0.00 | 0.00 | 70 | 1022.6 |
| 20260507033654 | 48 | 348 | 0.9 | 3.5 | 0.00 | 0.00 | 0.00 | 70 | 1022.7 |
| 20260507033151 | 49 | 5 | 1.7 | 3.5 | 0.00 | 0.01 | 0.00 | 70 | 1022.6 |
| 20260507032649 | 49 | 20 | 0.9 | 2.6 | 0.00 | 0.01 | 0.00 | 69 | 1022.5 |
| 20260507032149 | 49 | 15 | 0.9 | 2.6 | 0.00 | 0.01 | 0.00 | 69 | 1022.6 |
| 20260507031649 | 50 | 5 | 0.9 | 3.5 | 0.00 | 0.01 | 0.00 | 69 | 1022.5 |
| 20260507031150 | 50 | 11 | 1.7 | 3.5 | 0.00 | 0.01 | 0.00 | 69 | 1022.4 |
| 20260507030650 | 51 | 9 | 1.7 | 3.5 | 0.00 | 0.01 | 0.00 | 69 | 1022.4 |
| 20260507030153 | 51 | 346 | 1.7 | 4.3 | 0.00 | 0.01 | 0.00 | 68 | 1022.0 |
| 20260507030149 | 51 | 355 | 1.7 | 4.3 | 0.00 | 0.01 | 0.00 | 68 | 1022.1 |
| 20260507025150 | 52 | 15 | 1.7 | 3.5 | 0.00 | 0.01 | 0.00 | 67 | 1022.1 |
| 20260507024649 | 52 | 5 | 1.7 | 3.5 | 0.00 | 0.01 | 0.00 | 65 | 1021.9 |
| 20260507024150 | 53 | 19 | 1.7 | 4.3 | 0.00 | 0.01 | 0.00 | 63 | 1021.8 |
| 20260507023650 | 54 | 16 | 1.7 | 4.3 | 0.00 | 0.01 | 0.00 | 61 | 1021.6 |
| 20260507023150 | 55 | 344 | 1.7 | 3.5 | 0.00 | 0.01 | 0.00 | 59 | 1021.1 |
| 20260507022650 | 56 | 31 | 1.7 | 3.5 | 0.00 | 0.01 | 0.00 | 56 | 1020.7 |
| 20260507022149 | 57 | 54 | 0.9 | 5.2 | 0.00 | 0.01 | 0.00 | 55 | 1020.8 |
| 20260507021650 | 57 | 284 | 0.9 | 5.2 | 0.00 | 0.01 | 0.00 | 52 | 1021.0 |
| 20260507021154 | 57 | 355 | 1.7 | 4.3 | 0.00 | 0.01 | 0.00 | 50 | 1020.5 |
| 20260507021150 | 57 | 17 | 1.7 | 4.3 | 0.00 | 0.01 | 0.00 | 50 | 1020.8 |
| 20260507020149 | 57 | 17 | 1.7 | 3.5 | 0.00 | 0.01 | 0.00 | 50 | 1020.3 |
| 20260507015650 | 57 | 65 | 1.7 | 3.5 | 0.00 | 0.01 | 0.00 | 50 | 1019.9 |
| 20260507015150 | 57 | 79 | 1.7 | 5.2 | 0.00 | 0.01 | 0.00 | 50 | 1019.4 |
| 20260507014650 | 58 | 54 | 1.7 | 5.2 | 0.00 | 0.01 | 0.00 | 49 | 1019.3 |
| 20260507014147 | 58 | 24 | 1.7 | 3.5 | 0.00 | 0.01 | 0.00 | 49 | 1019.2 |
| 20260507013649 | 58 | 46 | 1.7 | 5.2 | 0.00 | 0.01 | 0.00 | 49 | 1019.1 |
| 20260507013145 | 58 | 42 | 2.6 | 6.1 | 0.00 | 0.01 | 0.00 | 49 | 1018.8 |
| 20260507012645 | 58 | 69 | 2.6 | 6.1 | 0.00 | 0.02 | 0.00 | 48 | 1018.4 |
| 20260507012150 | 58 | 76 | 2.6 | 6.1 | 0.00 | 0.02 | 0.00 | 48 | 1018.2 |
| 20260507012144 | 59 | 63 | 2.6 | 7.8 | 0.00 | 0.02 | 0.00 | 48 | 1018.0 |
| 20260507011756 | 59 | 67 | 2.6 | 7.8 | 0.00 | 0.02 | 0.00 | 48 | 1017.9 |
| 20260507010641 | 59 | 67 | 2.6 | 6.1 | 0.00 | 0.02 | 0.00 | 48 | 1017.5 |
| 20260507010139 | 59 | 65 | 2.6 | 9.6 | 0.00 | 0.02 | 0.00 | 47 | 1017.2 |
| 20260507005639 | 60 | 62 | 3.5 | 9.6 | 0.00 | 0.02 | 0.00 | 47 | 1017.0 |
| 20260507005143 | 60 | 66 | 2.6 | 10.4 | 0.00 | 0.02 | 0.00 | 46 | 1016.9 |
| 20260507005139 | 60 | 78 | 3.5 | 10.4 | 0.00 | 0.02 | 0.00 | 46 | 1017.0 |
| 20260507004752 | 60 | 67 | 1.7 | 6.1 | 0.00 | 0.02 | 0.00 | 46 | 1016.8 |
| 20260507004251 | 61 | 63 | 2.6 | 11.3 | 0.00 | 0.02 | 0.00 | 45 | 1016.8 |
| 20260507003139 | 61 | 47 | 2.6 | 11.3 | 0.00 | 0.02 | 0.00 | 45 | 1016.8 |
| 20260507002640 | 61 | 96 | 2.6 | 8.7 | 0.00 | 0.02 | 0.00 | 44 | 1016.8 |
| 20260507002137 | 62 | 71 | 2.6 | 7.8 | 0.00 | 0.02 | 0.00 | 44 | 1016.8 |
| 20260507001637 | 62 | 69 | 3.5 | 12.2 | 0.00 | 0.02 | 0.00 | 43 | 1016.4 |
| 20260507001142 | 62 | 94 | 2.6 | 10.4 | 0.00 | 0.02 | 0.00 | 43 | 1016.4 |
| 20260507001138 | 62 | 65 | 3.5 | 12.2 | 0.00 | 0.02 | 0.00 | 43 | 1016.4 |
| 20260507000749 | 63 | 70 | 2.6 | 7.0 | 0.00 | 0.02 | 0.00 | 43 | 1016.3 |
| 20260506235637 | 63 | 64 | 3.5 | 10.4 | 0.00 | 0.02 | 0.00 | 42 | 1016.0 |
| 20260506235137 | 63 | 63 | 3.5 | 10.4 | 0.00 | 0.02 | 0.00 | 42 | 1016.0 |
| 20260506234638 | 64 | 69 | 4.3 | 12.2 | 0.00 | 0.02 | 0.00 | 41 | 1015.8 |
| 20260506234136 | 65 | 59 | 4.3 | 13.0 | 0.00 | 0.02 | 0.00 | 40 | 1015.8 |
| 20260506233636 | 65 | 87 | 4.3 | 13.0 | 0.00 | 0.02 | 0.00 | 40 | 1015.6 |
| 20260506233136 | 65 | 77 | 3.5 | 10.4 | 0.00 | 0.02 | 0.00 | 40 | 1015.6 |
| 20260506232635 | 65 | 105 | 3.5 | 8.7 | 0.00 | 0.02 | 0.00 | 40 | 1015.6 |
| 20260506232135 | 65 | 116 | 3.5 | 10.4 | 0.00 | 0.02 | 0.00 | 40 | 1015.9 |
| 20260506231636 | 64 | 94 | 3.5 | 10.4 | 0.00 | 0.02 | 0.00 | 40 | 1016.0 |
| 20260506231136 | 65 | 61 | 3.5 | 12.2 | 0.00 | 0.02 | 0.00 | 40 | 1015.8 |
| 20260506230635 | 65 | 112 | 3.5 | 12.2 | 0.00 | 0.02 | 0.00 | 40 | 1015.8 |
| 20260506230135 | 65 | 72 | 3.5 | 8.7 | 0.00 | 0.02 | 0.00 | 39 | 1015.8 |
| 20260506225635 | 65 | 33 | 3.5 | 8.7 | 0.00 | 0.02 | 0.00 | 39 | 1015.6 |
| 20260506225135 | 65 | 57 | 2.6 | 6.1 | 0.00 | 0.02 | 0.00 | 39 | 1015.8 |
| 20260506224635 | 66 | 74 | 2.6 | 7.0 | 0.00 | 0.02 | 0.00 | 39 | 1015.5 |
| 20260506224140 | 66 | 62 | 2.6 | 6.1 | 0.00 | 0.02 | 0.00 | 38 | 1015.4 |
| 20260506224135 | 66 | 78 | 2.6 | 7.0 | 0.00 | 0.02 | 0.00 | 38 | 1015.4 |
| 20260506223748 | 66 | 68 | 2.6 | 6.1 | 0.00 | 0.02 | 0.00 | 38 | 1015.5 |